User: anonymous   Login
Location: Monroe
(41.9160°N, 83.3980°W)
Time: 13:59:10
(UTC-05:00)
Language:

ISS - Orbit

View from above orbital plane
View from above orbital plane
View from above satellite
View from above satellite

Ground track
Ground track

The orbit data is extracted from the following two-line orbital elements,

1 25544U 98067A   16045.58412692  .00016699  00000-0  25326-3 0  9995
2 25544  51.6440 314.4178 0006737 112.6183 311.3175 15.54725978985753
Epoch (UTC): 14 February 2016 14:01:08
Eccentricity: 0.0006737
inclination: 51.6440°
perigee height: 398 km
apogee height: 407 km
right ascension of ascending node: 314.4178°
argument of perigee: 112.6183°
revolutions per day: 15.54725978
mean anomaly at epoch: 311.3175°
orbit number at epoch: 98575

The dashed part of the orbit path shows where the satellite is in the earth's shadow,  

DLR